Time,TemperatureF,DewpointF,PressureIn,WindDirection,WindDirectionDegrees,WindSpeedMPH,WindSpeedGustMPH,Humidity,HourlyPrecipIn,Conditions,Clouds,dailyrainin,SolarRadiationWatts/m^2,SoftwareType,DateUTC
2013-01-30 00:06:00,38.4,25.0,30.30,WNW,289,1.0,3.0,59,0.00,,,0.00,0,weatherlink.com 1.10,2013-01-30 07:06:00,
2013-01-30 00:21:00,37.9,25.0,30.30,WNW,289,1.0,3.0,61,0.00,,,0.00,0,weatherlink.com 1.10,2013-01-30 07:21:00,
2013-01-30 00:36:00,38.0,25.0,30.30,WNW,289,2.0,3.0,59,0.00,,,0.00,0,weatherlink.com 1.10,2013-01-30 07:36:00,
2013-01-30 00:51:00,38.2,25.0,30.31,WNW,289,2.0,4.0,60,0.00,,,0.00,0,weatherlink.com 1.10,2013-01-30 07:51:00,
2013-01-30 01:06:00,38.7,25.0,30.31,NNW,342,0.0,2.0,58,0.00,,,0.00,0,weatherlink.com 1.10,2013-01-30 08:06:00,
2013-01-30 01:21:00,37.9,25.0,30.32,East,101,0.0,5.0,60,0.00,,,0.00,0,weatherlink.com 1.10,2013-01-30 08:21:00,
2013-01-30 01:39:00,37.1,25.0,30.32,East,101,0.0,1.0,62,0.00,,,0.00,0,weatherlink.com 1.10,2013-01-30 08:39:00,
2013-01-30 01:51:00,36.6,25.0,30.33,East,101,0.0,1.0,62,0.00,,,0.00,0,weatherlink.com 1.10,2013-01-30 08:51:00,
2013-01-30 02:06:00,35.4,25.0,30.33,East,101,0.0,1.0,66,0.00,,,0.00,0,weatherlink.com 1.10,2013-01-30 09:06:00,
2013-01-30 02:21:00,35.8,25.0,30.33,East,101,2.0,2.0,65,0.00,,,0.00,0,weatherlink.com 1.10,2013-01-30 09:21:00,
2013-01-30 02:37:00,36.3,25.0,30.34,East,101,0.0,2.0,65,0.00,,,0.00,0,weatherlink.com 1.10,2013-01-30 09:37:00,
2013-01-30 02:51:00,36.0,26.0,30.34,East,101,0.0,2.0,67,0.00,,,0.00,0,weatherlink.com 1.10,2013-01-30 09:51:00,
2013-01-30 03:06:00,35.0,26.0,30.34,East,101,0.0,1.0,69,0.00,,,0.00,0,weatherlink.com 1.10,2013-01-30 10:06:00,
2013-01-30 03:21:00,34.5,26.0,30.34,East,101,0.0,2.0,70,0.00,,,0.00,0,weatherlink.com 1.10,2013-01-30 10:21:00,
2013-01-30 03:37:00,34.3,25.0,30.35,East,101,1.0,2.0,70,0.00,,,0.00,0,weatherlink.com 1.10,2013-01-30 10:37:00,
2013-01-30 03:52:00,34.7,26.0,30.35,East,101,0.0,1.0,70,0.00,,,0.00,0,weatherlink.com 1.10,2013-01-30 10:52:00,
2013-01-30 04:07:00,33.6,26.0,30.35,ESE,103,0.0,3.0,73,0.00,,,0.00,0,weatherlink.com 1.10,2013-01-30 11:07:00,
2013-01-30 04:22:00,32.5,26.0,30.36,ESE,103,0.0,1.0,76,0.00,,,0.00,0,weatherlink.com 1.10,2013-01-30 11:22:00,
2013-01-30 04:37:00,32.5,26.0,30.36,ESE,103,1.0,2.0,76,0.00,,,0.00,0,weatherlink.com 1.10,2013-01-30 11:37:00,
2013-01-30 04:52:00,32.6,26.0,30.37,ESE,103,0.0,2.0,75,0.00,,,0.00,0,weatherlink.com 1.10,2013-01-30 11:52:00,
2013-01-30 05:07:00,31.3,26.0,30.37,ESE,103,0.0,0.0,79,0.00,,,0.00,0,weatherlink.com 1.10,2013-01-30 12:07:00,
2013-01-30 05:23:00,30.8,25.0,30.37,ESE,103,0.0,1.0,80,0.00,,,0.00,0,weatherlink.com 1.10,2013-01-30 12:23:00,
2013-01-30 05:37:00,31.2,25.0,30.38,ESE,103,0.0,1.0,79,0.00,,,0.00,0,weatherlink.com 1.10,2013-01-30 12:37:00,
2013-01-30 05:52:00,30.8,26.0,30.38,ESE,103,1.0,2.0,81,0.00,,,0.00,0,weatherlink.com 1.10,2013-01-30 12:52:00,
2013-01-30 06:22:00,32.4,26.0,30.39,ESE,103,1.0,3.0,77,0.00,,,0.00,0,weatherlink.com 1.10,2013-01-30 13:22:00,
2013-01-30 06:37:00,32.9,26.0,30.39,ESE,103,2.0,5.0,75,0.00,,,0.00,0,weatherlink.com 1.10,2013-01-30 13:37:00,
2013-01-30 06:52:00,32.7,26.0,30.40,ESE,103,0.0,2.0,75,0.00,,,0.00,0,weatherlink.com 1.10,2013-01-30 13:52:00,
2013-01-30 07:07:00,31.1,26.0,30.41,ESE,103,0.0,0.0,80,0.00,,,0.00,0,weatherlink.com 1.10,2013-01-30 14:07:00,
2013-01-30 07:22:00,30.0,25.0,30.41,ESE,103,0.0,0.0,82,0.00,,,0.00,7,weatherlink.com 1.10,2013-01-30 14:22:00,
2013-01-30 07:37:00,29.4,25.0,30.41,ESE,105,2.0,3.0,84,0.00,,,0.00,12,weatherlink.com 1.10,2013-01-30 14:37:00,
2013-01-30 07:53:00,30.3,26.0,30.42,ESE,109,1.0,1.0,85,0.00,,,0.00,67,weatherlink.com 1.10,2013-01-30 14:53:00,
2013-01-30 08:07:00,33.5,28.0,30.43,ESE,109,0.0,1.0,79,0.00,,,0.00,114,weatherlink.com 1.10,2013-01-30 15:07:00,
2013-01-30 08:22:00,36.8,27.0,30.44,ESE,109,0.0,2.0,69,0.00,,,0.00,179,weatherlink.com 1.10,2013-01-30 15:22:00,
2013-01-30 08:37:00,39.5,27.0,30.44,ESE,109,0.0,2.0,62,0.00,,,0.00,244,weatherlink.com 1.10,2013-01-30 15:37:00,
2013-01-30 08:53:00,42.2,29.0,30.44,ESE,109,0.0,0.0,59,0.00,,,0.00,304,weatherlink.com 1.10,2013-01-30 15:53:00,
2013-01-30 09:08:00,44.8,28.0,30.45,ESE,109,1.0,3.0,52,0.00,,,0.00,357,weatherlink.com 1.10,2013-01-30 16:08:00,
2013-01-30 09:23:00,45.9,28.0,30.44,ESE,108,3.0,3.0,49,0.00,,,0.00,403,weatherlink.com 1.10,2013-01-30 16:23:00,
2013-01-30 09:38:00,46.5,28.0,30.45,NNE,24,2.0,5.0,48,0.00,,,0.00,450,weatherlink.com 1.10,2013-01-30 16:38:00,
2013-01-30 09:53:00,46.9,27.0,30.45,NNE,12,3.0,5.0,46,0.00,,,0.00,490,weatherlink.com 1.10,2013-01-30 16:53:00,
2013-01-30 10:08:00,47.6,26.0,30.45,North,5,2.0,5.0,44,0.00,,,0.00,529,weatherlink.com 1.10,2013-01-30 17:08:00,
2013-01-30 10:23:00,48.8,27.0,30.46,North,355,2.0,6.0,43,0.00,,,0.00,566,weatherlink.com 1.10,2013-01-30 17:23:00,
2013-01-30 10:38:00,49.2,26.0,30.46,NNW,346,0.0,5.0,41,0.00,,,0.00,598,weatherlink.com 1.10,2013-01-30 17:38:00,
2013-01-30 10:53:00,50.6,26.0,30.45,NNW,346,3.0,4.0,39,0.00,,,0.00,629,weatherlink.com 1.10,2013-01-30 17:53:00,
2013-01-30 11:09:00,51.8,26.0,30.45,NNW,343,1.0,5.0,37,0.00,,,0.00,652,weatherlink.com 1.10,2013-01-30 18:09:00,
2013-01-30 11:23:00,52.7,25.0,30.45,NNW,342,5.0,5.0,34,0.00,,,0.00,673,weatherlink.com 1.10,2013-01-30 18:23:00,
2013-01-30 11:38:00,53.2,24.0,30.44,NNW,331,2.0,5.0,32,0.00,,,0.00,693,weatherlink.com 1.10,2013-01-30 18:38:00,
2013-01-30 11:54:00,53.3,23.0,30.43,WSW,253,1.0,6.0,31,0.00,,,0.00,707,weatherlink.com 1.10,2013-01-30 18:54:00,
2013-01-30 12:08:00,53.5,20.0,30.42,North,360,1.0,6.0,27,0.00,,,0.00,715,weatherlink.com 1.10,2013-01-30 19:08:00,
2013-01-30 12:24:00,54.9,20.0,30.41,SW,230,7.0,7.0,26,0.00,,,0.00,717,weatherlink.com 1.10,2013-01-30 19:24:00,
2013-01-30 12:39:00,55.8,19.0,30.41,SW,235,1.0,4.0,24,0.00,,,0.00,722,weatherlink.com 1.10,2013-01-30 19:39:00,
2013-01-30 12:54:00,56.9,19.0,30.40,West,277,3.0,5.0,23,0.00,,,0.00,726,weatherlink.com 1.10,2013-01-30 19:54:00,
2013-01-30 13:09:00,56.9,18.0,30.38,NNE,14,0.0,5.0,22,0.00,,,0.00,707,weatherlink.com 1.10,2013-01-30 20:09:00,
2013-01-30 13:24:00,56.1,18.0,30.38,ENE,63,4.0,7.0,22,0.00,,,0.00,570,weatherlink.com 1.10,2013-01-30 20:24:00,
2013-01-30 13:39:00,57.7,19.0,30.37,NNW,348,3.0,7.0,22,0.00,,,0.00,682,weatherlink.com 1.10,2013-01-30 20:39:00,
2013-01-30 13:54:00,58.0,18.0,30.35,West,261,4.0,6.0,21,0.00,,,0.00,663,weatherlink.com 1.10,2013-01-30 20:54:00,
2013-01-30 14:09:00,58.6,19.0,30.33,WNW,289,8.0,8.0,21,0.00,,,0.00,638,weatherlink.com 1.10,2013-01-30 21:09:00,
2013-01-30 14:24:00,59.5,18.0,30.33,NNW,331,4.0,6.0,20,0.00,,,0.00,610,weatherlink.com 1.10,2013-01-30 21:24:00,
2013-01-30 14:39:00,59.8,18.0,30.33,NW,313,6.0,8.0,20,0.00,,,0.00,573,weatherlink.com 1.10,2013-01-30 21:39:00,
2013-01-30 14:54:00,59.8,17.0,30.32,WNW,300,3.0,8.0,19,0.00,,,0.00,526,weatherlink.com 1.10,2013-01-30 21:54:00,
2013-01-30 15:09:00,59.8,17.0,30.32,WNW,298,4.0,7.0,19,0.00,,,0.00,485,weatherlink.com 1.10,2013-01-30 22:09:00,
2013-01-30 15:24:00,59.7,19.0,30.32,NW,304,5.0,8.0,21,0.00,,,0.00,462,weatherlink.com 1.10,2013-01-30 22:24:00,
2013-01-30 15:39:00,59.9,21.0,30.32,NW,322,6.0,9.0,22,0.00,,,0.00,410,weatherlink.com 1.10,2013-01-30 22:39:00,
2013-01-30 15:54:00,59.2,20.0,30.32,NNE,17,2.0,11.0,22,0.00,,,0.00,367,weatherlink.com 1.10,2013-01-30 22:54:00,
2013-01-30 16:09:00,59.4,19.0,30.33,NW,313,5.0,8.0,21,0.00,,,0.00,294,weatherlink.com 1.10,2013-01-30 23:09:00,
2013-01-30 16:24:00,59.0,20.0,30.32,NNW,338,7.0,8.0,22,0.00,,,0.00,271,weatherlink.com 1.10,2013-01-30 23:24:00,
2013-01-30 16:39:00,58.5,20.0,30.32,NW,315,4.0,9.0,22,0.00,,,0.00,199,weatherlink.com 1.10,2013-01-30 23:39:00,
2013-01-30 16:54:00,57.9,18.0,30.32,WNW,290,5.0,10.0,21,0.00,,,0.00,151,weatherlink.com 1.10,2013-01-30 23:54:00,
2013-01-30 17:09:00,57.6,19.0,30.32,WNW,300,2.0,9.0,22,0.00,,,0.00,79,weatherlink.com 1.10,2013-01-31 00:09:00,
2013-01-30 17:24:00,56.4,22.0,30.32,NW,324,3.0,10.0,26,0.00,,,0.00,37,weatherlink.com 1.10,2013-01-31 00:24:00,
2013-01-30 17:39:00,54.6,22.0,30.32,NW,326,2.0,9.0,28,0.00,,,0.00,16,weatherlink.com 1.10,2013-01-31 00:39:00,
2013-01-30 17:54:00,52.8,22.0,30.32,NW,315,3.0,8.0,30,0.00,,,0.00,5,weatherlink.com 1.10,2013-01-31 00:54:00,
2013-01-30 18:09:00,51.4,23.0,30.32,WNW,300,3.0,6.0,33,0.00,,,0.00,0,weatherlink.com 1.10,2013-01-31 01:09:00,
2013-01-30 18:24:00,50.3,23.0,30.31,WNW,300,3.0,5.0,35,0.00,,,0.00,0,weatherlink.com 1.10,2013-01-31 01:24:00,
2013-01-30 18:39:00,49.4,25.0,30.31,WNW,300,0.0,2.0,38,0.00,,,0.00,0,weatherlink.com 1.10,2013-01-31 01:39:00,
2013-01-30 18:54:00,47.9,25.0,30.32,WNW,300,0.0,0.0,41,0.00,,,0.00,0,weatherlink.com 1.10,2013-01-31 01:54:00,
2013-01-30 19:09:00,48.0,26.0,30.31,East,86,1.0,3.0,42,0.00,,,0.00,0,weatherlink.com 1.10,2013-01-31 02:09:00,
2013-01-30 19:24:00,46.4,26.0,30.31,ESE,112,0.0,2.0,45,0.00,,,0.00,0,weatherlink.com 1.10,2013-01-31 02:24:00,
2013-01-30 19:39:00,45.7,26.0,30.32,ENE,77,2.0,2.0,46,0.00,,,0.00,0,weatherlink.com 1.10,2013-01-31 02:39:00,
2013-01-30 19:54:00,45.3,26.0,30.32,East,88,2.0,3.0,48,0.00,,,0.00,0,weatherlink.com 1.10,2013-01-31 02:54:00,
2013-01-30 20:09:00,44.5,27.0,30.32,East,88,3.0,3.0,50,0.00,,,0.00,0,weatherlink.com 1.10,2013-01-31 03:09:00,
2013-01-30 20:24:00,44.3,27.0,30.32,East,88,3.0,3.0,50,0.00,,,0.00,0,weatherlink.com 1.10,2013-01-31 03:24:00,
2013-01-30 20:39:00,44.5,26.0,30.32,East,93,1.0,3.0,48,0.00,,,0.00,0,weatherlink.com 1.10,2013-01-31 03:39:00,
2013-01-30 20:54:00,43.5,27.0,30.32,East,88,1.0,1.0,52,0.00,,,0.00,0,weatherlink.com 1.10,2013-01-31 03:54:00,
2013-01-30 21:09:00,43.3,26.0,30.32,East,88,0.0,1.0,50,0.00,,,0.00,0,weatherlink.com 1.10,2013-01-31 04:09:00,
2013-01-30 21:24:00,42.2,26.0,30.32,East,88,1.0,1.0,53,0.00,,,0.00,0,weatherlink.com 1.10,2013-01-31 04:24:00,
2013-01-30 21:39:00,42.7,26.0,30.32,ESE,115,1.0,1.0,52,0.00,,,0.00,0,weatherlink.com 1.10,2013-01-31 04:39:00,
2013-01-30 21:54:00,42.4,26.0,30.31,East,84,3.0,3.0,52,0.00,,,0.00,0,weatherlink.com 1.10,2013-01-31 04:54:00,
2013-01-30 22:09:00,42.7,26.0,30.32,ESE,111,1.0,1.0,53,0.00,,,0.00,0,weatherlink.com 1.10,2013-01-31 05:09:00,
2013-01-30 22:24:00,43.4,25.0,30.31,South,171,1.0,2.0,48,0.00,,,0.00,0,weatherlink.com 1.10,2013-01-31 05:24:00,
2013-01-30 22:39:00,41.9,25.0,30.32,SW,214,1.0,1.0,52,0.00,,,0.00,0,weatherlink.com 1.10,2013-01-31 05:39:00,
2013-01-30 22:54:00,42.6,25.0,30.33,WSW,249,2.0,3.0,50,0.00,,,0.00,0,weatherlink.com 1.10,2013-01-31 05:54:00,
2013-01-30 23:09:00,40.5,27.0,30.34,WNW,286,1.0,2.0,59,0.00,,,0.00,0,weatherlink.com 1.10,2013-01-31 06:09:00,
2013-01-30 23:24:00,40.0,27.0,30.35,North,11,3.0,3.0,60,0.00,,,0.00,0,weatherlink.com 1.10,2013-01-31 06:24:00,
2013-01-30 23:39:00,39.8,27.0,30.35,NNE,24,2.0,4.0,61,0.00,,,0.00,0,weatherlink.com 1.10,2013-01-31 06:39:00,
2013-01-30 23:54:00,40.1,27.0,30.36,NW,325,1.0,3.0,59,0.00,,,0.00,0,weatherlink.com 1.10,2013-01-31 06:54:00,